Lid_Strength_Index
5 5 5 5 5 5 5 5 4 4 4 4 4 3 3 3 3 8 10 6 4 1 2 8 8 9 10 11 10 12 16 18 17 16 15 12 13 11 10 12 11 9 9 8 7
6 5 5 5 5 5 5 5 5 5 4 4 4 3 3 3 7 9 6 3 2 2 8 9 10 9 12 12 12 14 17 16 14 13 14 12 13 12 12 12 11 10 8 7 7
6 6 5 5 5 5 5 5 5 5 5 4 4 4 3 4 11 10 4 3 3 4 7 8 9 10 12 12 12 14 16 13 13 11 11 11 12 11 12 13 12 12 10 8 8
6 6 6 5 5 5 5 5 5 5 5 5 4 4 3 8 15 9 3 3 3 6 8 9 10 12 13 14 12 14 12 12 11 10 11 11 11 12 11 12 9 10 9 9 9
6 6 6 6 5 5 5 5 5 5 5 5 4 4 7 12 12 7 4 5 7 8 9 10 11 12 14 13 12 14 13 11 10 10 11 10 11 12 12 10 9 9 9 9 9
6 6 6 6 5 5 5 6 6 5 5 5 4 4 10 14 8 7 8 7 8 8 9 9 10 10 12 12 13 12 12 12 11 11 10 11 11 11 11 9 10 10 10 9 9
5 5 5 6 6 5 6 6 6 6 5 5 4 6 11 13 9 9 8 8 8 8 10 8 8 11 11 13 11 12 14 13 12 11 11 11 13 12 10 10 10 10 10 9 9
5 5 5 6 6 6 6 6 6 5 5 5 5 9 13 8 9 9 8 8 8 7 8 8 8 9 11 11 13 14 15 17 13 11 10 12 16 11 10 11 11 10 9 8 8
5 5 5 5 6 6 6 6 6 6 6 5 10 12 14 8 11 9 9 10 9 8 7 6 9 12 12 15 17 16 19 18 15 11 11 13 16 11 10 11 11 10 9 8 8
5 6 6 5 6 6 6 6 6 8 8 7 9 14 12 13 11 10 9 9 10 10 11 11 13 16 16 17 22 20 19 17 17 14 12 14 13 12 11 11 11 10 9 8 8
5 6 6 6 6 6 9 12 14 15 13 14 14 14 12 11 10 11 9 10 10 12 16 13 16 19 17 15 15 15 16 18 16 13 13 14 13 12 12 11 10 10 10 9 9
5 6 6 6 6 7 11 13 14 13 18 13 12 12 12 11 13 12 10 13 14 16 15 16 17 15 14 14 14 16 18 18 16 13 13 13 15 13 12 12 10 10 10 9 9
5 6 6 6 7 11 13 13 10 11 17 14 12 13 12 12 14 13 12 13 15 16 16 18 16 14 15 16 16 17 19 20 17 14 12 15 17 16 13 12 10 9 9 9 10
5 6 6 7 12 13 15 11 10 11 19 17 15 13 12 12 15 11 11 13 14 17 16 17 15 15 16 16 16 18 15 15 16 16 21 16 22 21 16 13 12 12 10 11 10
5 5 6 8 14 14 13 11 11 13 22 16 15 11 12 15 14 14 11 13 15 15 17 18 17 17 17 16 15 17 14 15 16 17 15 20 23 21 16 16 14 13 11 11 11
5 5 6 11 12 12 12 11 13 17 21 18 16 16 16 15 15 13 13 12 13 15 16 16 14 16 16 15 15 14 15 16 16 17 23 22 22 22 21 17 15 13 13 12 11
5 6 9 11 14 11 11 15 20 22 18 19 19 16 17 17 16 16 16 16 17 20 19 18 17 15 14 17 15 15 18 25 25 25 23 19 21 19 16 14 13 13 14 13 12
5 6 9 10 10 11 14 20 24 21 21 17 17 17 19 17 18 17 18 19 17 18 20 21 22 16 15 17 18 17 18 23 26 25 23 18 21 18 14 13 12 14 15 13 13
5 10 10 10 10 12 17 27 22 21 18 18 18 20 20 18 18 18 18 18 17 16 20 20 20 16 15 15 16 17 19 17 19 23 22 21 18 16 14 15 15 15 15 15 14
8 10 11 10 10 13 19 22 22 18 17 17 19 19 21 20 19 19 19 17 17 15 15 17 20 17 16 15 15 17 15 20 21 27 26 22 20 19 16 15 15 16 16 15 14
9 12 10 9 11 16 22 23 20 17 16 18 19 20 20 20 20 20 19 18 16 16 15 16 19 19 17 17 18 17 18 17 18 19 22 24 21 16 16 14 15 16 15 14 14
11 16 10 10 17 21 23 22 18 18 17 16 17 19 19 19 20 20 20 18 15 15 17 16 18 22 20 18 16 17 18 17 21 22 20 20 20 15 15 14 15 16 15 14 14
13 15 10 11 20 23 24 22 19 19 18 17 18 17 17 19 21 19 19 16 15 16 16 16 22 27 23 19 18 18 17 16 17 18 20 22 21 15 16 16 16 16 15 14 14
14 18 15 14 16 19 23 23 21 18 18 16 17 17 18 19 19 20 18 17 16 16 12 14 19 21 23 20 19 19 18 17 17 21 20 19 20 17 16 16 17 16 15 15 14
14 16 16 19 17 19 18 19 20 21 19 17 19 18 18 20 20 19 18 18 17 13 15 16 23 21 19 18 18 18 18 18 18 17 20 20 19 17 15 16 16 16 15 15 15
15 16 16 17 16 17 17 19 19 19 20 20 20 18 17 19 18 19 18 18 18 17 17 17 23 22 24 20 20 21 18 18 17 16 17 17 16 15 15 16 17 15 15 15 15
10 12 13 16 17 18 17 17 18 17 18 18 18 18 18 17 17 18 17 17 17 17 18 18 22 26 27 24 24 23 22 19 18 18 17 19 16 15 16 15 15 15 14 14 14